星链-2405 (STARLINK-2405 )

导读

STARLINK-2405是美国太空探索技术公司星链星座的一员,于2021年3月14日发射入轨。星链项目旨在构建全球卫星互联网通信系统,为全球提供高速宽带服务。该卫星属于星链批量部署的卫星之一,承担低轨星座组网任务,推动全球覆盖的空间网络基础设施建设,提升偏远地区网络接入能力。

基本信息
目录编号:
47919
目录名称:
STARLINK-2405
国际标识:
2021-021BM
轨道中心:
EARTH
卫星名称:
星链-2405
卫星全名:
星链-2405 (STARLINK-2405 )
卫星状态:
在轨 (已飞行1922 天)
发射日期:
2021-03-14 UTC
国别 :
美国 (US)
星等 :
--
轨道信息
数据来源 国际轨道数据 AOE轨道数据
星历时间 2026-06-18T08:01:41+0800
16小时前
查看轨道信息
2026-06-17T03:00:00+0800
1天前
查看轨道信息
半长轴 6848.881km 6848.785km
偏心率 0.0001275 0.0001165
轨道倾角 53.160° 53.158°
近地点辐角 98.821° 63.325°
升交点赤经 174.298° 179.936°
平近点角 261.294° 103.803°
近地点 469.87km 469.85km
远地点 471.618km 471.446km
周期 94.013分钟 94.011分钟
每日圈数 15.316987 15.317311
详细信息
固有亮度:
5
最大亮度:
2.5
卫星平台:
Starlink V1.0
覆盖范围:
全球
运营商:
太空探索技术公司
运营商所在国:
美国
制造商(研发单位):
太空探索技术公司
制造商所在国:
美国
使用方式:
暂无
卫星简介
星链(Starlink)计划是由太空探索技术公司(SpaceX)提出的一个巨型低轨卫星互联网星座项目,计划在2019年至2024年间在太空搭建由约1.2万颗卫星组成的“星链”网络,其中1584颗将部署在地球上空550千米处的近地轨道,并从2020年开始工作。该卫星仍在工作。
2D轨道图
3D轨道图
轨道高度分析图
轨道倾角分析图
轨道综合分析图
查看轨道综合分析图